Location: N�rnberg
(49.4471°N, 11.0632°E)
Time: 16:11:02
(UTC+01:00)

ARIANE 6 FM1 Upper Stage - Pass Details

Date: 13 February 2026
Orbit: 523 x 607 km, 62.0° (Epoch: 7 March)

Event Time Altitude Azimuth Distance (km) Brightness Sun altitude
Rises 20:16:01 0° 313° (NW) 2,661 7.0 -27.1°
Reaches altitude 10° 20:18:13 10° 311° (NW) 1,768 5.9 -27.5°
Enters shadow 20:20:38 35° 302° (WNW) 860 4.0 -27.8°
